TimeEDT,TemperatureF,Dew PointF,Humidity,Sea Level PressureIn,VisibilityMPH,Wind Direction,Wind SpeedMPH,Gust SpeedMPH,PrecipitationIn,Events,Conditions,WindDirDegrees,DateUTC
12:53 AM,78.1,71.1,79,29.94,10.0,Variable,4.6,-,N/A,,Scattered Clouds,0,2013-09-08 04:53:00
1:53 AM,78.1,71.1,79,29.94,10.0,Calm,Calm,-,N/A,,Scattered Clouds,0,2013-09-08 05:53:00
2:53 AM,77.0,70.0,79,29.92,10.0,North,5.8,-,N/A,,Scattered Clouds,350,2013-09-08 06:53:00
3:53 AM,77.0,71.1,82,29.91,10.0,North,4.6,-,N/A,,Scattered Clouds,360,2013-09-08 07:53:00
4:53 AM,77.0,71.1,82,29.91,10.0,North,4.6,-,N/A,,Scattered Clouds,350,2013-09-08 08:53:00
5:53 AM,77.0,72.0,84,29.91,10.0,Calm,Calm,-,N/A,,Scattered Clouds,0,2013-09-08 09:53:00
6:53 AM,75.9,72.0,87,29.91,10.0,NNW,4.6,-,N/A,,Scattered Clouds,340,2013-09-08 10:53:00
7:53 AM,78.1,73.0,84,29.94,10.0,NNW,3.5,-,N/A,,Scattered Clouds,330,2013-09-08 11:53:00
8:53 AM,82.0,73.9,76,29.95,10.0,Calm,Calm,-,N/A,,Scattered Clouds,0,2013-09-08 12:53:00
9:53 AM,84.9,73.0,67,29.94,10.0,NNW,3.5,-,N/A,,Scattered Clouds,340,2013-09-08 13:53:00
10:53 AM,87.1,72.0,61,29.95,10.0,Variable,3.5,-,N/A,,Scattered Clouds,0,2013-09-08 14:53:00
11:53 AM,84.9,72.0,65,29.94,10.0,SSE,10.4,16.1,N/A,,Mostly Cloudy,150,2013-09-08 15:53:00
12:01 PM,80.6,71.6,74,29.94,1.8,South,18.4,26.5,0.10,Rain,Heavy Rain,180,2013-09-08 16:01:00
12:08 PM,77.0,69.8,78,29.95,4.0,South,9.2,27.6,0.46,Rain,Heavy Rain,170,2013-09-08 16:08:00
12:53 PM,82.9,75.9,79,29.94,10.0,ESE,8.1,-,1.00,,Scattered Clouds,110,2013-09-08 16:53:00
1:53 PM,87.1,72.0,61,29.91,10.0,Variable,5.8,-,N/A,,Scattered Clouds,0,2013-09-08 17:53:00
2:53 PM,84.9,69.1,59,29.89,10.0,SE,8.1,-,N/A,,Mostly Cloudy,140,2013-09-08 18:53:00
3:53 PM,88.0,72.0,59,29.87,10.0,ESE,9.2,-,N/A,,Mostly Cloudy,120,2013-09-08 19:53:00
4:04 PM,86.0,71.6,62,29.87,10.0,SE,8.1,-,N/A,Thunderstorm,Thunderstorm,130,2013-09-08 20:04:00
4:41 PM,80.6,69.8,70,29.88,10.0,WNW,4.6,-,N/A,,Mostly Cloudy,300,2013-09-08 20:41:00
4:53 PM,81.0,71.1,72,29.87,10.0,North,5.8,-,N/A,,Mostly Cloudy,350,2013-09-08 20:53:00
5:53 PM,82.0,73.9,76,29.88,10.0,NE,6.9,-,0.00,,Mostly Cloudy,40,2013-09-08 21:53:00
6:53 PM,82.0,73.9,76,29.88,10.0,Variable,3.5,-,N/A,,Mostly Cloudy,0,2013-09-08 22:53:00
7:53 PM,82.0,73.0,74,29.91,10.0,North,3.5,-,N/A,,Mostly Cloudy,360,2013-09-08 23:53:00
8:53 PM,82.0,73.9,76,29.93,10.0,East,3.5,-,N/A,,Mostly Cloudy,90,2013-09-09 00:53:00
9:53 PM,82.0,73.0,74,29.95,10.0,ESE,5.8,-,N/A,,Mostly Cloudy,110,2013-09-09 01:53:00
10:53 PM,82.0,73.0,74,29.96,10.0,Calm,Calm,-,N/A,,Mostly Cloudy,0,2013-09-09 02:53:00
11:53 PM,81.0,73.0,77,29.96,10.0,Calm,Calm,-,N/A,,Mostly Cloudy,0,2013-09-09 03:53:00